This demonstration page uses our WeatherBlox Daily Observations layout. Learn more.

40.92945, -100.16068

Hourly Observations for May 22, 2016

Temp ( °F °C ) Dew Point ( °F °C ) Humidity (%) Winds ( mph kmh ) Pressure ( in mb ) Visibility ( mi km ) Precip ( " mm )
12:15 am 00:15 Cloudy 62 16.4 55 12.5 78 78 SE 21 33 29.91 1013 10 16.0934 N/A
12:35 am 00:35 Cloudy 62 16.5 55 12.5 77 77 SE 22 35 29.91 1013 10 16.0934 N/A
12:55 am 00:55 Cloudy 62 16.6 55 12.6 77 77 SE 21 33 29.91 1013 10 16.0934 N/A
1:15 am 01:15 Cloudy 62 16.7 55 12.7 77 77 SSE 23 37 29.91 1013 10 16.0934 N/A
1:35 am 01:35 Cloudy 62 16.7 55 12.8 78 78 SSE 23 37 29.88 1012 10 16.0934 N/A
1:55 am 01:55 Cloudy 62 16.9 55 13 78 78 SSE 23 37 29.88 1012 10 16.0934 N/A
2:15 am 02:15 Cloudy 62 16.8 56 13.1 79 79 SE 21 33 29.88 1012 10 16.0934 N/A
2:35 am 02:35 Cloudy 62 16.8 56 13.2 79 79 SE 21 33 29.88 1012 10 16.0934 N/A
2:55 am 02:55 Cloudy 62 16.8 56 13.3 80 80 SE 20 31 29.88 1012 10 16.0934 N/A
3:15 am 03:15 Cloudy 62 16.6 56 13.2 80 80 SSE 18 30 29.88 1012 10 16.0934 N/A
3:35 am 03:35 Cloudy 62 16.6 56 13.4 82 82 SE 20 31 29.88 1012 10 16.0934 N/A
3:55 am 03:55 Cloudy 62 16.5 56 13.5 83 83 SSE 23 37 29.88 1012 10 16.0934 N/A
4:15 am 04:15 Cloudy 62 16.5 56 13.5 83 83 SSE 22 35 29.88 1012 10 16.0934 N/A
4:35 am 04:35 Cloudy 62 16.5 56 13.6 83 83 SSE 20 31 29.88 1012 10 16.0934 N/A
4:55 am 04:55 Cloudy 62 16.5 56 13.6 83 83 SSE 18 30 29.88 1012 10 16.0934 N/A
5:15 am 05:15 Cloudy 62 16.5 57 13.7 84 84 SSE 18 30 29.88 1012 10 16.0934 N/A
5:35 am 05:35 Cloudy 62 16.5 57 13.7 84 84 SE 16 26 29.85 1011 10 16.0934 N/A
5:55 am 05:55 Cloudy 62 16.4 57 13.8 85 85 SSE 21 33 29.85 1011 10 16.0934 N/A
6:15 am 06:15 Cloudy 62 16.4 57 13.8 85 85 SSE 18 30 29.85 1011 10 16.0934 N/A
6:35 am 06:35 Cloudy 61 16.3 57 13.7 85 85 SSE 17 28 29.85 1011 10 16.0934 N/A
6:55 am 06:55 Cloudy 62 16.5 57 14 85 85 SSE 21 33 29.85 1011 10 16.0934 N/A
7:15 am 07:15 Cloudy 62 16.7 58 14.3 86 86 SE 21 33 29.85 1011 10 16.0934 N/A
7:35 am 07:35 Cloudy 63 17.1 58 14.7 86 86 SSE 15 24 29.85 1011 10 16.0934 N/A
7:55 am 07:55 Cloudy 63 17.3 59 15 86 86 SSE 13 20 29.85 1011 10 16.0934 N/A
8:15 am 08:15 Cloudy 64 17.9 60 15.4 85 85 SE 17 28 29.85 1011 10 16.0934 N/A
8:35 am 08:35 Cloudy 64 17.8 60 15.3 85 85 SE 13 20 29.85 1011 10 16.0934 N/A
8:55 am 08:55 Cloudy 64 17.8 60 15.4 86 86 SSE 16 26 29.85 1011 10 16.0934 N/A
9:15 am 09:15 Cloudy 65 18.5 60 15.8 84 84 SSE 17 28 29.85 1011 10 16.0934 N/A
9:35 am 09:35 Cloudy 67 19.5 62 16.4 82 82 SSE 23 37 29.83 1010 10 16.0934 N/A
9:55 am 09:55 Cloudy 68 19.8 62 16.5 81 81 SSE 23 37 29.83 1010 10 16.0934 N/A
10:15 am 10:15 Cloudy 69 20.6 63 17 80 80 S 23 37 29.83 1010 10 16.0934 N/A
10:35 am 10:35 Cloudy 69 20.7 62 16.9 79 79 S 26 43 29.8 1009 10 16.0934 N/A
10:55 am 10:55 Cloudy 69 20.4 62 16.8 80 80 SSE 26 43 29.8 1009 10 16.0934 N/A
11:15 am 11:15 Cloudy 69 20.5 62 16.7 79 79 S 28 44 29.8 1009 10 16.0934 N/A
11:35 am 11:35 Cloudy 69 20.7 63 17.1 80 80 S 20 31 29.8 1009 10 16.0934 N/A
11:55 am 11:55 Cloudy 69 20.7 63 17 79 79 S 26 43 29.8 1009 10 16.0934 N/A
12:15 pm 12:15 Cloudy 69 20.5 63 17 80 80 SSE 22 35 29.8 1009 10 16.0934 N/A
12:35 pm 12:35 Cloudy 69 20.5 63 17.1 81 81 S 22 35 29.8 1009 10 16.0934 N/A
12:55 pm 12:55 Cloudy 69 20.7 63 17.4 81 81 SSE 21 33 29.77 1008 10 16.0934 N/A
1:15 pm 13:15 Cloudy 68 20.2 63 17.1 82 82 SSE 17 28 29.77 1008 10 16.0934 N/A
1:35 pm 13:35 Cloudy 69 20.5 64 17.5 83 83 SSE 24 39 29.74 1007 7 11.26538 N/A
1:55 pm 13:55 Mostly Cloudy 71 21.6 64 17.6 78 78 SSE 26 43 29.71 1006 10 16.0934 N/A
2:15 pm 14:15 Mostly Cloudy 72 22.4 65 18.3 78 78 SSE 23 37 29.71 1006 10 16.0934 N/A
2:35 pm 14:35 Partly Cloudy 74 23.5 65 18.6 74 74 SSE 25 41 29.68 1005 10 16.0934 N/A
2:55 pm 14:55 Partly Cloudy 75 24 66 19 74 74 SSE 20 31 29.68 1005 10 16.0934 N/A
3:15 pm 15:15 Partly Cloudy 76 24.6 66 18.7 70 70 SSE 23 37 29.68 1005 10 16.0934 N/A
3:35 pm 15:35 Partly Cloudy 77 25.2 66 18.9 68 68 SSE 24 39 29.62 1003 10 16.0934 N/A
3:55 pm 15:55 Partly Cloudy 78 25.4 66 18.7 67 67 SSE 24 39 29.62 1003 10 16.0934 N/A
4:15 pm 16:15 Partly Cloudy 77 25.1 66 18.8 68 68 SSE 22 35 29.62 1003 10 16.0934 N/A
4:35 pm 16:35 Mostly Cloudy 78 25.3 66 18.8 67 67 SSE 25 41 29.62 1003 10 16.0934 N/A
4:55 pm 16:55 Mostly Cloudy 78 25.4 66 19 68 68 SSE 28 44 29.59 1002 10 16.0934 N/A
5:15 pm 17:15 Mostly Cloudy 79 25.9 67 19.3 67 67 SSE 26 43 29.59 1002 10 16.0934 N/A
5:35 pm 17:35 Mostly Cloudy 78 25.5 66 18.7 66 66 SSE 26 43 29.59 1002 10 16.0934 N/A
5:55 pm 17:55 Mostly Cloudy 79 26.1 65 18.6 63 63 SSE 24 39 29.56 1001 10 16.0934 N/A
6:15 pm 18:15 Mostly Cloudy 79 25.9 66 19 66 66 SSE 29 46 29.56 1001 10 16.0934 N/A
6:35 pm 18:35 Mostly Cloudy 78 25.3 66 18.7 67 67 SSE 25 41 29.56 1001 10 16.0934 N/A
6:55 pm 18:55 Mostly Cloudy 76 24.7 66 18.8 70 70 SSE 29 46 29.56 1001 10 16.0934 N/A
7:15 pm 19:15 Partly Cloudy 76 24.5 66 18.7 70 70 SSE 25 41 29.56 1001 10 16.0934 N/A
7:35 pm 19:35 Sunny 76 24.5 65 18.6 70 70 SSE 29 46 29.56 1001 10 16.0934 N/A
7:55 pm 19:55 Partly Cloudy 75 23.7 66 18.7 74 74 SSE 25 41 29.59 1002 10 16.0934 N/A
8:15 pm 20:15 Mostly Cloudy 74 23.5 65 18.6 74 74 SSE 23 37 29.59 1002 10 16.0934 N/A
8:35 pm 20:35 Partly Cloudy 74 23.2 65 18.5 75 75 SSE 22 35 29.59 1002 10 16.0934 N/A
8:55 pm 20:55 Partly Cloudy 73 23 65 18.6 76 76 SSE 21 33 29.59 1002 10 16.0934 N/A
9:15 pm 21:15 Mostly Cloudy 73 22.9 65 18.6 77 77 SSE 22 35 29.59 1002 10 16.0934 N/A
9:35 pm 21:35 Mostly Cloudy 74 23.2 64 18 73 73 S 23 37 29.59 1002 10 16.0934 N/A
9:55 pm 21:55 Mostly Cloudy 74 23.2 64 18 73 73 S 24 39 29.59 1002 10 16.0934 N/A
10:15 pm 22:15 Partly Cloudy 73 22.6 65 18.2 76 76 S 26 43 29.59 1002 10 16.0934 N/A
10:35 pm 22:35 Clear 72 22.4 65 18.5 79 79 SSE 21 33 29.59 1002 10 16.0934 N/A
10:55 pm 22:55 Partly Cloudy 72 22.2 65 18.5 80 80 SSE 21 33 29.59 1002 10 16.0934 N/A
11:15 pm 23:15 Partly Cloudy 71 21.7 65 18.5 82 82 SSE 22 35 29.59 1002 10 16.0934 N/A
11:35 pm 23:35 Clear 71 21.5 65 18.5 83 83 SSE 23 37 29.59 1002 10 16.0934 N/A
11:55 pm 23:55 Partly Cloudy 70 21.3 65 18.4 84 84 SSE 22 35 29.59 1002 10 16.0934 N/A

Powered by AerisWeather